Weather History for KGCN - January, 2014

Change the Weather History Date:

Saturday, January 25, 2014

  Actual Average Record
Temperature  
Mean Temperature 38 °F -  
Max Temperature 55 °F 42 °F 63 °F (1982)
Min Temperature 18 °F 16 °F 2 °F (1978)
Degree Days  
Heating Degree Days 27    
Moisture  
Dew Point 7 °F    
Average Humidity 36    
Maximum Humidity 60    
Minimum Humidity 13    
Precipitation  
Precipitation 0.00 in - - ()
Sea Level Pressure  
Sea Level Pressure 30.27 in    
Wind  
Wind Speed 6 mph (WSW)    
Max Wind Speed 10 mph    
Max Gust Speed -    
Visibility 9 miles    
Events      
Averages and records for this station are not official NWS values.
T = Trace of Precipitation, MM = Missing Value Source: NWS Daily Summary

Daily Weather History Graph

Daily Weather History Graph

Search for Another Location

Airport or City:

Trip Planner

Search our weather history database for the weather conditions in past years. The results will help you decide how hot, cold, wet, or windy it might be!

Date:

Astronomy

Jan. 25, 2014 Rise Set
Actual Time 7:33 AM MST 5:48 PM MST
Civil Twilight 7:06 AM MST 6:15 PM MST
Nautical Twilight 6:35 AM MST 6:46 PM MST
Astronomical Twilight 6:05 AM MST 7:17 PM MST
Moon 2:10 AM MST (1/25) 12:51 PM MST (1/25)
Length of Visible Light 11h 09m
Length of Day
10h 14m
Waning Crescent, 33% of the Moon is Illuminated
Jan 25
Waning Crescent
Jan 30
New
Feb 6
First Quarter
Feb 14
Full
Feb 22
Last Quarter

Hourly Weather History & Observations

Time (MST) Temp. Dew Point Humidity Pressure Visibility Wind Dir Wind Speed Gust Speed Precip Events Conditions
12:54 AM 28.9 °F 12.0 °F 49% 30.38 in 10.0 mi North - - N/A   Clear
1:54 AM 28.0 °F 12.9 °F 53% 30.37 in 10.0 mi North - - N/A   Clear
2:54 AM 28.9 °F 12.0 °F 49% 30.35 in 10.0 mi North - - N/A   Clear
3:54 AM 28.9 °F 12.9 °F 51% 30.34 in 10.0 mi North - - N/A   Clear
4:54 AM 28.0 °F 14.0 °F 56% 30.34 in 10.0 mi North - - N/A   Mostly Cloudy
5:54 AM 28.9 °F 12.0 °F 49% 30.34 in 10.0 mi North - - N/A   Mostly Cloudy
6:54 AM 23.0 °F 10.9 °F 60% 30.37 in 10.0 mi North - - N/A   Clear
7:54 AM 24.1 °F 12.0 °F 60% 30.38 in 10.0 mi North - - N/A   Scattered Clouds
8:54 AM 35.1 °F 12.0 °F 39% 30.32 in 10.0 mi North - - N/A   Clear
9:54 AM 43.0 °F 3.0 °F 19% 30.30 in 10.0 mi North - - N/A   Clear
10:54 AM 48.0 °F -0.0 °F 14% 30.29 in 10.0 mi North - - N/A   Clear
11:54 AM 52.0 °F 7.0 °F 16% 30.25 in 10.0 mi North - - N/A   Clear
12:54 PM 53.1 °F 5.0 °F 14% 30.21 in 10.0 mi West 6.9 mph - N/A   Mostly Cloudy
1:54 PM 54.0 °F 6.1 °F 15% 30.19 in 10.0 mi SSW 10.4 mph - N/A   Clear
2:54 PM 55.0 °F 5.0 °F 13% 30.16 in 10.0 mi SW 5.8 mph - N/A   Clear
3:54 PM 54.0 °F 5.0 °F 14% 30.16 in 10.0 mi West 6.9 mph - N/A   Clear
4:54 PM 52.0 °F 5.0 °F 15% 30.17 in 10.0 mi Variable 4.6 mph - N/A   Clear
5:54 PM 41.0 °F 3.9 °F 21% 30.21 in 10.0 mi Calm Calm - N/A   Partly Cloudy
6:54 PM 28.0 °F 1.9 °F 33% 30.30 in 10.0 mi Calm Calm - N/A   Mostly Cloudy
7:01 PM 28.4 °F 3.2 °F 34% 30.24 in 1.8 mi North - - N/A   Haze
7:08 PM 28.4 °F 3.2 °F 34% 30.24 in 2.5 mi North - - N/A   Haze
7:28 PM 26.6 °F 3.2 °F 37% 30.24 in 8.0 mi North - - N/A   Overcast
7:54 PM 28.0 °F 3.9 °F 36% 30.30 in 8.0 mi North - - N/A   Overcast
8:54 PM 25.0 °F 3.9 °F 41% 30.25 in 10.0 mi North - - N/A   Scattered Clouds
9:54 PM 23.0 °F 3.9 °F 44% 30.22 in 10.0 mi North - - N/A   Clear
10:54 PM 21.0 °F 5.0 °F 50% 30.19 in 10.0 mi North - - N/A   Clear
11:54 PM 18.0 °F 3.0 °F 52% 30.18 in 10.0 mi North - - N/A   Clear